| time (UTC) | temp F | wind direction | speed knots | gust knots | rain 1hr in | rain 24hr in | rain mn in | humidity % | barometer mb |
| 20260502164017 | 62 | 0 | 0.0 | 0.0 | 0.00 | 0.00 | 0.00 | 64 | 1014.8 |
| 20260502162517 | 62 | 0 | 0.0 | 0.0 | 0.00 | 0.00 | 0.00 | 65 | 1014.6 |
| 20260502161017 | 62 | 116 | 0.9 | 0.9 | 0.00 | 0.00 | 0.00 | 64 | 1014.8 |
| 20260502151017 | 63 | 6 | 0.9 | 1.7 | 0.00 | 0.00 | 0.00 | 63 | 1015.5 |
| 20260502122517 | 60 | 0 | 0.0 | 0.0 | 0.00 | 0.00 | 0.00 | 68 | 1016.9 |
| 20260502121016 | 60 | 179 | 0.9 | 2.6 | 0.00 | 0.00 | 0.00 | 68 | 1017.4 |
| 20260502115517 | 59 | 211 | 0.9 | 1.7 | 0.00 | 0.00 | 0.00 | 68 | 1017.6 |
| 20260502114016 | 61 | 307 | 3.5 | 6.1 | 0.00 | 0.00 | 0.00 | 68 | 1017.6 |
| 20260502112517 | 58 | 271 | 1.7 | 2.6 | 0.00 | 0.00 | 0.00 | 70 | 1017.7 |
| 20260502111016 | 57 | 335 | 4.3 | 6.1 | 0.00 | 0.00 | 0.00 | 72 | 1017.8 |
| 20260502105516 | 57 | 308 | 3.5 | 5.2 | 0.00 | 0.00 | 0.00 | 74 | 1018.0 |
| 20260502104016 | 56 | 284 | 3.5 | 5.2 | 0.00 | 0.00 | 0.00 | 73 | 1018.0 |
| 20260502102516 | 56 | 325 | 5.2 | 6.1 | 0.00 | 0.00 | 0.00 | 74 | 1018.0 |
| 20260502101017 | 56 | 335 | 2.6 | 3.5 | 0.00 | 0.00 | 0.00 | 74 | 1018.4 |
| 20260502091016 | 55 | 220 | 1.7 | 3.5 | 0.00 | 0.00 | 0.00 | 75 | 1018.4 |
| 20260502071017 | 50 | 294 | 4.3 | 6.1 | 0.00 | 0.00 | 0.00 | 85 | 1018.6 |
| 20260502065516 | 50 | 229 | 1.7 | 1.7 | 0.00 | 0.00 | 0.00 | 87 | 1018.5 |
| 20260502064016 | 50 | 186 | 1.7 | 1.7 | 0.00 | 0.00 | 0.00 | 87 | 1018.6 |
| 20260502062516 | 49 | 338 | 2.6 | 3.5 | 0.00 | 0.00 | 0.00 | 88 | 1018.3 |
| 20260502061016 | 49 | 267 | 1.7 | 2.6 | 0.00 | 0.00 | 0.00 | 89 | 1018.4 |
| 20260502055516 | 48 | 160 | 0.0 | 0.9 | 0.00 | 0.00 | 0.00 | 90 | 1018.5 |
| 20260502054016 | 48 | 0 | 0.0 | 0.0 | 0.00 | 0.00 | 0.00 | 90 | 1018.4 |
| 20260502052517 | 49 | 0 | 0.0 | 0.0 | 0.00 | 0.00 | 0.00 | 90 | 1018.4 |
| 20260502051016 | 48 | 0 | 0.0 | 0.0 | 0.00 | 0.00 | 0.00 | 91 | 1018.3 |
| 20260502045517 | 49 | 196 | 0.0 | 0.9 | 0.00 | 0.00 | 0.00 | 90 | 1018.3 |
| 20260502044016 | 49 | 196 | 0.9 | 0.9 | 0.00 | 0.00 | 0.00 | 90 | 1018.5 |
| 20260502042516 | 49 | 214 | 0.9 | 1.7 | 0.00 | 0.00 | 0.00 | 89 | 1018.5 |
| 20260502041016 | 50 | 230 | 2.6 | 2.6 | 0.00 | 0.00 | 0.00 | 89 | 1018.4 |
| 20260502035516 | 50 | 204 | 1.7 | 1.7 | 0.00 | 0.00 | 0.00 | 89 | 1018.3 |
| 20260502034016 | 50 | 211 | 0.9 | 0.9 | 0.00 | 0.00 | 0.00 | 89 | 1018.6 |
| 20260502032516 | 50 | 226 | 1.7 | 3.5 | 0.00 | 0.00 | 0.00 | 88 | 1018.6 |
| 20260502031016 | 51 | 244 | 2.6 | 5.2 | 0.00 | 0.00 | 0.00 | 88 | 1018.4 |
| 20260502025516 | 51 | 174 | 0.9 | 0.9 | 0.00 | 0.00 | 0.00 | 88 | 1018.6 |
| 20260502024016 | 50 | 220 | 1.7 | 1.7 | 0.00 | 0.00 | 0.00 | 89 | 1018.8 |
| 20260502022516 | 50 | 206 | 0.9 | 1.7 | 0.00 | 0.00 | 0.00 | 89 | 1018.8 |
| 20260502021016 | 50 | 0 | 0.0 | 0.0 | 0.00 | 0.00 | 0.00 | 89 | 1018.6 |
| 20260502015516 | 50 | 189 | 0.0 | 0.9 | 0.00 | 0.00 | 0.00 | 88 | 1018.8 |
| 20260502014016 | 51 | 202 | 0.0 | 0.9 | 0.00 | 0.00 | 0.00 | 87 | 1019.1 |
| 20260502012516 | 51 | 202 | 0.0 | 0.9 | 0.00 | 0.00 | 0.00 | 87 | 1019.1 |
| 20260502011016 | 51 | 263 | 1.7 | 2.6 | 0.00 | 0.00 | 0.00 | 86 | 1019.0 |
| 20260502005516 | 52 | 290 | 0.9 | 1.7 | 0.00 | 0.00 | 0.00 | 86 | 1019.5 |
| 20260502004016 | 53 | 267 | 2.6 | 5.2 | 0.00 | 0.00 | 0.00 | 86 | 1019.3 |
| 20260502002516 | 53 | 178 | 0.9 | 0.9 | 0.00 | 0.00 | 0.00 | 86 | 1019.5 |
| 20260502001016 | 53 | 242 | 2.6 | 5.2 | 0.00 | 0.00 | 0.00 | 86 | 1019.5 |
| 20260501235516 | 53 | 251 | 2.6 | 5.2 | 0.00 | 0.00 | 0.00 | 85 | 1019.7 |
| 20260501234016 | 53 | 310 | 1.7 | 2.6 | 0.00 | 0.00 | 0.00 | 86 | 1019.9 |
| 20260501232516 | 53 | 313 | 1.7 | 1.7 | 0.00 | 0.00 | 0.00 | 87 | 1019.7 |
| 20260501231017 | 54 | 268 | 2.6 | 3.5 | 0.00 | 0.00 | 0.00 | 88 | 1020.1 |
| 20260501225516 | 54 | 135 | 1.7 | 1.7 | 0.00 | 0.00 | 0.00 | 88 | 1019.7 |
| 20260501224016 | 54 | 356 | 3.5 | 5.2 | 0.00 | 0.00 | 0.00 | 88 | 1019.6 |
| 20260501222516 | 54 | 236 | 3.5 | 7.8 | 0.00 | 0.00 | 0.00 | 87 | 1019.3 |
| 20260501221016 | 54 | 319 | 4.3 | 7.0 | 0.00 | 0.00 | 0.00 | 87 | 1019.4 |
| 20260501215516 | 54 | 307 | 4.3 | 6.1 | 0.00 | 0.00 | 0.00 | 87 | 1019.6 |
| 20260501214017 | 54 | 288 | 3.5 | 6.1 | 0.00 | 0.00 | 0.00 | 86 | 1019.5 |
| 20260501212516 | 55 | 241 | 5.2 | 7.8 | 0.00 | 0.00 | 0.00 | 86 | 1019.3 |
| 20260501211016 | 55 | 225 | 4.3 | 6.1 | 0.00 | 0.00 | 0.00 | 84 | 1019.3 |
| 20260501205516 | 56 | 265 | 5.2 | 6.1 | 0.00 | 0.00 | 0.00 | 83 | 1019.5 |
| 20260501204016 | 56 | 302 | 4.3 | 7.0 | 0.00 | 0.00 | 0.00 | 82 | 1019.6 |
| 20260501202516 | 57 | 279 | 5.2 | 8.7 | 0.00 | 0.00 | 0.00 | 80 | 1019.3 |
| 20260501201016 | 58 | 238 | 4.3 | 6.1 | 0.00 | 0.00 | 0.00 | 76 | 1019.3 |
| 20260501195516 | 58 | 252 | 4.3 | 6.1 | 0.00 | 0.00 | 0.00 | 76 | 1019.5 |
| 20260501194016 | 58 | 303 | 4.3 | 9.6 | 0.00 | 0.00 | 0.00 | 75 | 1019.4 |
| 20260501192516 | 59 | 287 | 6.1 | 9.6 | 0.00 | 0.00 | 0.00 | 71 | 1019.3 |
| 20260501191017 | 60 | 239 | 4.3 | 8.7 | 0.00 | 0.00 | 0.00 | 69 | 1019.2 |
| 20260501185516 | 60 | 232 | 4.3 | 5.2 | 0.00 | 0.00 | 0.00 | 70 | 1019.3 |
| 20260501184016 | 60 | 254 | 7.0 | 10.4 | 0.00 | 0.00 | 0.00 | 68 | 1019.1 |
| 20260501182516 | 62 | 277 | 7.0 | 10.4 | 0.00 | 0.00 | 0.00 | 67 | 1018.9 |
| 20260501181016 | 63 | 278 | 5.2 | 8.7 | 0.00 | 0.00 | 0.00 | 68 | 1018.9 |
| 20260501175516 | 64 | 278 | 3.5 | 5.2 | 0.00 | 0.00 | 0.00 | 67 | 1019.0 |
| 20260501174016 | 66 | 302 | 5.2 | 8.7 | 0.00 | 0.00 | 0.00 | 63 | 1018.8 |